Location: Balaclava NSW 2575, Australia
(34.4510°S, 150.4953°E)
Time: 03:25:48
(UTC+10:00)

Vanguard 2 - Visible Passes

Search period start: 19 June 2021 00:00
Search period end: 29 June 2021 00:00
Orbit: 552 x 2937 km, 32.9° (Epoch: 17 June)

Date Brightness Start Highest point End Pass type
(mag) Time Alt. Az. Time Alt. Az. Time Alt. Az.
19 Jun 9.8 04:12:06 20° N 04:14:44 26° NE 04:21:56 10° E visible
19 Jun 9.3 06:15:35 10° WNW 06:23:00 70° NNE 06:35:46 10° E visible
20 Jun 9.4 04:29:23 26° N 04:32:00 36° NE 04:40:22 10° E visible
20 Jun 9.3 06:33:11 10° WNW 06:40:46 77° NNE 06:53:54 10° E visible
21 Jun 9.1 04:46:35 30° NNW 04:49:25 47° NNE 04:58:35 10° E visible
22 Jun 10.6 03:02:18 12° ENE 03:02:18 12° ENE 03:03:13 10° ENE visible
22 Jun 8.8 05:03:44 30° NW 05:06:58 59° NNE 05:16:42 10° E visible
23 Jun 10.2 03:19:24 18° ENE 03:19:24 18° ENE 03:22:03 10° E visible
23 Jun 8.6 05:20:49 26° WNW 05:24:38 70° NNE 05:34:47 10° E visible
24 Jun 9.8 03:36:26 26° ENE 03:36:26 26° ENE 03:40:23 10° E visible
24 Jun 8.6 05:37:50 21° WNW 05:42:22 77° N 05:52:52 10° E visible
25 Jun 9.2 03:53:25 35° ENE 03:53:25 35° ENE 03:58:31 10° E visible
25 Jun 8.6 05:54:50 16° W 06:00:11 81° N 06:10:57 10° E visible
26 Jun 8.6 04:10:22 49° ENE 04:10:22 49° ENE 04:16:33 10° E visible
26 Jun 8.7 06:11:47 11° W 06:18:00 81° N 06:29:02 10° E visible
27 Jun 8.1 04:27:17 66° NE 04:27:17 66° NE 04:34:33 10° E visible
27 Jun 8.8 06:29:18 10° W 06:35:50 77° N 06:47:05 10° ENE visible
28 Jun 7.7 04:44:11 74° NNW 04:44:31 77° N 04:52:34 10° E visible
